Aiken, SC

7:15 AM EDT on April 26, 2017 (GMT -0400)
Aiken Municipal

Weather History for KAIK - February, 2015

Change the Weather History Date:

Monday, February 9, 2015

  Actual Average Record
Temperature  
Mean Temperature 57 °F -  
Max Temperature 64 °F 57 °F 64 °F (2015)
Min Temperature 50 °F 31 °F 28 °F (2011)
Degree Days  
Heating Degree Days 8    
Growing Degree Days 7 (Base 50)    
Moisture  
Dew Point 51 °F    
Average Humidity 84    
Maximum Humidity 100    
Minimum Humidity 58    
Precipitation  
Precipitation 0.00 in - - ()
Sea Level Pressure  
Sea Level Pressure 29.84 in    
Wind  
Wind Speed 6 mph (SW)    
Max Wind Speed 15 mph    
Max Gust Speed 17 mph    
Visibility 8 miles    
Events Fog , Rain , Thunderstorm    
Averages and records for this station are not official NWS values.
T = Trace of Precipitation, MM = Missing Value Source: NWS Daily Summary

Daily Weather History Graph

Daily Weather History Graph

Search for Another Location

Airport or City:

Trip Planner

Search our weather history database for the weather conditions in past years. The results will help you decide how hot, cold, wet, or windy it might be!

Date:

Astronomy

Feb. 09, 2015 Rise Set
Actual Time 7:16 AM EST 6:05 PM EST
Civil Twilight 6:51 AM EST 6:31 PM EST
Nautical Twilight 6:21 AM EST 7:00 PM EST
Astronomical Twilight 5:52 AM EST 7:29 PM EST
Moon 11:21 PM EST (2/9) 10:10 AM EST (2/9)
Length of Visible Light 11h 39m
Length of Day
10h 48m
Waning Gibbous, 73% of the Moon is Illuminated
Feb 9
Waning Gibbous
Feb 11
Last Quarter
Feb 18
New
Feb 25
First Quarter
Mar 5
Full

Hourly Weather History & Observations

Time (EST) Temp. Dew Point Humidity Pressure Visibility Wind Dir Wind Speed Gust Speed Precip Events Conditions
12:15 AM 53.6 °F 39.2 °F 58% 29.98 in 10.0 mi SSW 5.8 mph - N/A   Overcast
12:35 AM 55.4 °F 41.0 °F 58% 29.98 in 10.0 mi SSW 9.2 mph - N/A   Overcast
1:15 AM 55.4 °F 42.8 °F 63% 29.98 in 10.0 mi SSW 9.2 mph - N/A   Overcast
1:35 AM 57.2 °F 42.8 °F 59% 29.97 in 10.0 mi SSW 8.1 mph - N/A   Overcast
1:55 AM 57.2 °F 42.8 °F 59% 29.97 in 10.0 mi SW 6.9 mph - N/A   Overcast
2:15 AM 55.4 °F 42.8 °F 63% 29.96 in 10.0 mi SW 6.9 mph - N/A   Overcast
2:35 AM 55.4 °F 42.8 °F 63% 29.96 in 10.0 mi SSW 8.1 mph - N/A   Overcast
2:55 AM 55.4 °F 42.8 °F 63% 29.94 in 10.0 mi South 6.9 mph - N/A   Overcast
3:15 AM 55.4 °F 42.8 °F 63% 29.94 in 10.0 mi South 5.8 mph - N/A   Overcast
3:35 AM 55.4 °F 42.8 °F 63% 29.93 in 10.0 mi South 8.1 mph - N/A   Mostly Cloudy
3:55 AM 53.6 °F 42.8 °F 67% 29.93 in 10.0 mi SSW 5.8 mph - N/A   Scattered Clouds
4:15 AM 53.6 °F 42.8 °F 67% 29.93 in 10.0 mi SSW 4.6 mph - N/A   Clear
4:35 AM 51.8 °F 42.8 °F 71% 29.93 in 10.0 mi SSW 4.6 mph - N/A   Clear
4:55 AM 51.8 °F 42.8 °F 71% 29.92 in 10.0 mi South 5.8 mph - N/A   Clear
5:15 AM 51.8 °F 44.6 °F 76% 29.92 in 10.0 mi South 5.8 mph - N/A   Clear
5:35 AM 50.0 °F 42.8 °F 76% 29.92 in 10.0 mi South 5.8 mph - N/A   Clear
5:55 AM 50.0 °F 44.6 °F 82% 29.92 in 10.0 mi South 5.8 mph - N/A   Clear
6:15 AM 50.0 °F 44.6 °F 82% 29.92 in 10.0 mi South 6.9 mph - N/A   Clear
6:35 AM 51.8 °F 44.6 °F 76% 29.92 in 10.0 mi South 5.8 mph - N/A   Scattered Clouds
6:55 AM 53.6 °F 46.4 °F 77% 29.92 in 10.0 mi SSW 5.8 mph - N/A   Overcast
7:15 AM 53.6 °F 46.4 °F 77% 29.92 in 10.0 mi SW 6.9 mph - N/A   Mostly Cloudy
7:35 AM 53.6 °F 46.4 °F 77% 29.92 in 10.0 mi SSW 6.9 mph - N/A   Scattered Clouds
7:55 AM 53.6 °F 48.2 °F 82% 29.92 in 10.0 mi SSW 6.9 mph - N/A   Mostly Cloudy
8:15 AM 53.6 °F 48.2 °F 82% 29.92 in 10.0 mi SSW 5.8 mph - N/A   Overcast
8:35 AM 53.6 °F 50.0 °F 88% 29.92 in 10.0 mi SW 8.1 mph - N/A   Overcast
8:55 AM 53.6 °F 50.0 °F 88% 29.91 in 10.0 mi SSW 9.2 mph - N/A   Mostly Cloudy
9:55 AM 55.4 °F 50.0 °F 82% 29.90 in 10.0 mi WSW 9.2 mph - N/A   Mostly Cloudy
10:15 AM 59.0 °F 51.8 °F 77% 29.90 in 10.0 mi WSW 9.2 mph - N/A   Mostly Cloudy
10:35 AM 60.8 °F 51.8 °F 72% 29.89 in 10.0 mi WSW 6.9 mph - N/A   Overcast
10:55 AM 60.8 °F 53.6 °F 77% 29.88 in 10.0 mi SW 11.5 mph - N/A   Overcast
11:15 AM 60.8 °F 53.6 °F 77% 29.87 in 10.0 mi SW 9.2 mph - N/A   Overcast
11:35 AM 62.6 °F 53.6 °F 72% 29.86 in 10.0 mi SW 8.1 mph - N/A   Overcast
11:55 AM 62.6 °F 53.6 °F 72% 29.85 in 10.0 mi SSW 6.9 mph - N/A   Overcast
12:15 PM 62.6 °F 53.6 °F 72% 29.84 in 10.0 mi WSW 8.1 mph - N/A   Overcast
12:35 PM 62.6 °F 53.6 °F 72% 29.83 in 10.0 mi SW 6.9 mph - N/A   Overcast
12:55 PM 64.4 °F 53.6 °F 68% 29.82 in 10.0 mi West 15.0 mph - N/A   Overcast
1:15 PM 62.6 °F 53.6 °F 72% 29.82 in 10.0 mi West 12.7 mph 17.3 mph N/A   Overcast
1:35 PM 62.6 °F 53.6 °F 72% 29.80 in 10.0 mi WNW 5.8 mph - N/A   Overcast
1:55 PM 62.6 °F 53.6 °F 72% 29.78 in 10.0 mi Calm Calm - N/A   Overcast
2:15 PM 62.6 °F 53.6 °F 72% 29.78 in 10.0 mi WNW 6.9 mph - N/A   Overcast
2:35 PM 60.8 °F 55.4 °F 82% 29.78 in 2.5 mi WNW 10.4 mph - N/A Rain Heavy Rain
2:55 PM 57.2 °F 57.2 °F 100% 29.78 in 2.0 mi WNW 8.1 mph 16.1 mph N/A Rain , Thunderstorm Heavy Thunderstorms and Rain
3:15 PM 57.2 °F 57.2 °F 100% 29.78 in 5.0 mi West 9.2 mph - N/A Rain , Thunderstorm Light Thunderstorms and Rain
3:35 PM 57.2 °F 57.2 °F 100% 29.76 in 10.0 mi NW 5.8 mph - N/A   Overcast
3:55 PM 57.2 °F 57.2 °F 100% 29.75 in 10.0 mi NW 5.8 mph - N/A Thunderstorm Unknown
4:15 PM 57.2 °F 57.2 °F 100% 29.74 in 10.0 mi Calm Calm - N/A   Overcast
4:35 PM 57.2 °F 57.2 °F 100% 29.74 in 10.0 mi Calm Calm - N/A Rain Rain
4:55 PM 55.4 °F 55.4 °F 100% 29.76 in 10.0 mi SSW 5.8 mph - N/A Thunderstorm Overcast
5:15 PM 55.4 °F 55.4 °F 100% 29.76 in 10.0 mi South 3.5 mph - N/A   Mostly Cloudy
5:35 PM 55.4 °F 55.4 °F 100% 29.75 in 10.0 mi Calm Calm - N/A Rain Light Rain
5:55 PM 55.4 °F 55.4 °F 100% 29.75 in 10.0 mi Calm Calm - N/A   Overcast
6:15 PM 55.4 °F 55.4 °F 100% 29.76 in 10.0 mi Calm Calm - N/A   Overcast
6:35 PM 55.4 °F 55.4 °F 100% 29.75 in 10.0 mi ENE 3.5 mph - N/A   Overcast
6:55 PM 55.4 °F 55.4 °F 100% 29.76 in 7.0 mi Calm Calm - N/A   Overcast
7:15 PM 55.4 °F 55.4 °F 100% 29.76 in 3.0 mi Calm Calm - N/A   Overcast
7:35 PM 55.4 °F 55.4 °F 100% 29.75 in 0.8 mi Calm Calm - N/A   Overcast
7:55 PM 53.6 °F 53.6 °F 100% 29.76 in 0.8 mi Calm Calm - N/A   Overcast
8:15 PM 53.6 °F 53.6 °F 100% 29.76 in 0.5 mi Calm Calm - N/A Fog Fog
8:35 PM 53.6 °F 53.6 °F 100% 29.77 in 1.5 mi Calm Calm - N/A   Overcast
8:55 PM 53.6 °F 53.6 °F 100% 29.76 in 2.5 mi Calm Calm - N/A   Overcast
9:15 PM 55.4 °F 55.4 °F 100% 29.76 in 3.0 mi Calm Calm - N/A   Overcast
9:35 PM 55.4 °F 55.4 °F 100% 29.75 in 2.5 mi WSW 3.5 mph - N/A   Overcast
9:55 PM 53.6 °F 53.6 °F 100% 29.76 in 0.5 mi WSW 4.6 mph - N/A Fog Fog
10:15 PM 53.6 °F 53.6 °F 100% 29.76 in 0.2 mi WSW 3.5 mph - N/A Fog Fog
10:35 PM 53.6 °F 53.6 °F 100% 29.75 in 0.5 mi Calm Calm - N/A Fog Fog
10:55 PM 53.6 °F 53.6 °F 100% 29.74 in 0.5 mi Calm Calm - N/A Rain Light Rain
11:15 PM 53.6 °F 53.6 °F 100% 29.74 in 0.5 mi West 3.5 mph - N/A Rain Light Rain
11:35 PM 53.6 °F 53.6 °F 100% 29.75 in 0.5 mi West 3.5 mph - N/A Fog Fog
11:55 PM 53.6 °F 53.6 °F 100% 29.75 in 2.0 mi West 5.8 mph - N/A   Overcast